Location: Karaa?a�
(36.7158°N, 30.4165°E)
Time: 09:11:49
(UTC+00:00)

Hubble Space Telescope - Pass Details

Date: 09 April 2020
Orbit: 536 x 540 km, 28.5° (Epoch: 31 May)

Event Time Altitude Azimuth Distance (km) Brightness Sun altitude
Rises 17:17:20 0° 240° (WSW) 2,665 5.0 -10.4°
Reaches altitude 10° 17:19:55 10° 226° (SW) 1,775 3.8 -10.9°
Maximum altitude 17:23:12 23° 173° (S) 1,150 2.2 -11.5°
Enters shadow 17:25:18 16° 132° (SE) 1,438 2.4 -11.9°
